Regional Weather Roundup
Issued by NWS

Home | Current Version | Previous Version | Graphics & Text | Print | Product List | Glossary On
Versions: 1 2 3 4 5 6 7 8 9 10 11 12 13 14 15 16 17 18 19 20 21 22 23 24 25 26 27 28 29 30 31 32 33 34 35 36 37 38 39 40 41 42 43 44 45 46 47 48 49 50
618
ASUS43 KOAX 251010
RWRNE

WEATHER ROUNDUP FOR NEBRASKA
NATIONAL WEATHER SERVICE OMAHA NE
500 AM CDT MON JUL 25 2016

NOTES: SATELLITE DATA IS BEING USED TO AUGMENT CLOUD COVER ABOVE
       12000 FEET.
       "FAIR" INDICATES FEW OR NO CLOUDS BELOW 12,000 FEET WITH NO
       SIGNIFICANT WEATHER AND/OR OBSTRUCTIONS TO VISIBILITY.

  * THESE STATIONS DO NOT REPORT WEATHER SUCH AS RAIN...SNOW OR FOG.

NEZ001>004-019>022-054>056-251100-
NEBRASKA PANHANDLE

CITY           SKY/WX    TMP DP  RH WIND       PRES   REMARKS
SCOTTSBLUFF    CLEAR     59  55  87 E8        30.17S
ALLIANCE       CLEAR     55  54  96 SE8       30.18R
CHADRON        CLEAR     64  56  75 S10       30.12F
KIMBALL        CLEAR     55  55 100 S5        30.22S
SIDNEY         CLEAR     51  49  92 CALM      30.21F
$$

NEZ057>060-069>072-079>082-251100-
SOUTHWEST NEBRASKA

CITY           SKY/WX    TMP DP  RH WIND       PRES   REMARKS
NORTH PLATTE   PTCLDY    60  59  96 E3        30.15S
IMPERIAL       CLEAR     62  59  90 NE3       30.17R
LEXINGTON      PTCLDY    66  62  86 CALM      30.14R
MCCOOK         MOCLDY    64  61  90 NE6       30.13R
OGALLALA       CLEAR     60  57  91 CALM      30.17S
$$

NEZ005>010-023>029-035>040-094-251100-
NORTH CENTRAL NEBRASKA

CITY           SKY/WX    TMP DP  RH WIND       PRES   REMARKS
VALENTINE      CLEAR     58  54  86 S7        30.13R
AINSWORTH      CLEAR     58  53  84 S7        30.14R
BROKEN BOW     CLOUDY    62  60  93 CALM      30.14R
O`NEILL        CLOUDY    62  58  88 CALM      30.11S
ORD            CLOUDY    61  58  90 CALM      30.11R
THEDFORD       CLOUDY    57  56  95 CALM      30.17R
$$

NEZ041-046>049-061>064-073>077-083>087-251100-
SOUTH CENTRAL NEBRASKA

CITY           SKY/WX    TMP DP  RH WIND       PRES   REMARKS
GRAND ISLAND   CLOUDY    65  62  90 CALM      30.12R
AURORA         CLOUDY    64  64  98 NE5       30.11R
HASTINGS       CLOUDY    66  62  87 E8        30.12R
HEBRON         CLOUDY    67  64  88 CALM      30.09R
HOLDREGE       MOCLDY    65  62  91 CALM      30.13R
KEARNEY *      CLOUDY    64  61  88 E6        30.13R
YORK           MOCLDY    64  63  94 NE5       30.11R
$$

NEZ011>018-030>034-042>045-251100-
NORTHEAST NEBRASKA

CITY           SKY/WX    TMP DP  RH WIND       PRES   REMARKS
NORFOLK        MOCLDY    58  57  97 CALM      30.10R
ALBION         CLOUDY    61  58  90 N3        30.11R
BLAIR          PTCLDY    66  64  92 NE6       30.09R
FREMONT        PTCLDY    64  62  94 CALM      30.10R
TEKAMAH        CLEAR     62  60  93 CALM      30.08R
WAYNE          CLEAR     57  57  97 S3        30.10R
$$

NEZ050>053-065>068-078-088>093-251100-
SOUTHEAST NEBRASKA

CITY           SKY/WX    TMP DP  RH WIND       PRES   REMARKS
LINCOLN        PTCLDY    67  64  90 N6        30.09R
OMAHA EPPLEY   PTCLDY    66  62  87 NW6       30.08R
BEATRICE       PTCLDY    66  64  94 NE7       30.07S
FALLS CITY     PTCLDY    69  66  90 CALM      30.06R
NEBRASKA CITY  PTCLDY    67  67 100 N6        30.08R
PLATTSMOUTH    CLOUDY    66  64  91 CALM      30.09R
$$

NEZ044-045-051>053-067-251100-
OMAHA AREA

CITY           SKY/WX    TMP DP  RH WIND       PRES   REMARKS
OMAHA EPPLEY   PTCLDY    66  62  87 NW6       30.08R
BLAIR          PTCLDY    66  64  92 NE6       30.09R
FREMONT        PTCLDY    64  62  94 CALM      30.10R
MILLARD        PTCLDY    68  64  85 CALM      30.08R
OFFUTT AFB     PTCLDY    68  64  87 CALM      30.08R
PLATTSMOUTH    CLOUDY    66  64  91 CALM      30.09R
WAHOO          FAIR      65  63  92 CALM      30.10R
$$




USA.gov is the U.S. government's official web portal to all federal, state and local government web resources and services.